Simultaneous Nadir Overpasses (SNOs) Predictions

Prediction of SNOs between GOES-15 and LANDSAT-8 Satellite Orbit:

Table of predicted SNOs for the next 14.0 days since TLE Epoch: 11/4/2022
Index Date Time (GOES-15) GOES-15 Lat,Lon LANDSAT-8 Lat,Lon Distance(km) Time Diff (sec)
1 11/05/2022 18:46:07 -0.24,-128.40 -0.30,-128.02 42.37 80
2 11/07/2022 18:33:55 -0.24,-128.38 -0.93,-125.06 377.47 80
3 11/08/2022 06:55:19 0.24,-128.40 -0.17,-130.25 211.17 80
4 11/10/2022 06:40:27 0.23,-128.38 0.47,-127.29 123.22 80
5 11/10/2022 19:01:42 -0.23,-128.35 0.64,-132.45 466.07 80
6 11/12/2022 06:28:14 0.23,-128.35 1.08,-124.33 457.23 80
7 11/12/2022 18:49:29 -0.22,-128.32 0.03,-129.48 131.98 80
8 11/14/2022 18:39:56 -0.21,-128.29 -0.59,-126.52 201.80 80
9 11/15/2022 07:01:20 0.21,-128.31 -0.49,-131.71 385.77 80
10 11/17/2022 06:49:06 0.20,-128.28 0.09,-128.74 52.32 80
